Flag for U.S.A. Weather past 2 weeks in Port Angeles, Washington, U.S.A.

29 °F

Ice fog.

Feels Like: 24 °F
Forecast: 34 / 42 °F
Wind: 5 mph from Southeast

Location: William R. Fairchild International Airport

Current Time: Nov 24, 2015 at 10:22:37 PM

Latest Report: Nov 24, 2015 at 8:53 PM

Visibility: 6 mi

Pressure: 30.18 "Hg

Humidity: 93%

Dew point: 27 °F

Location of Port AngelesLocation

Historic Weather in Port Angeles — Graph


Port Angeles temperature yesterday

Maximum temperature yesterday: 46 °F (at 11:53 AM)
Minimum temperature yesterday: 34 °F (at 1:53 AM)
Average temperature yesterday: 41 °F

Past Weeks' High & Low Weather Summary

High58 °F (Nov 17, 10:53 AM)97% (Nov 13, 1:53 AM)30.57 "Hg (Nov 13, 1:53 AM)
Low29 °F (Nov 20, 11:53 PM)41% (Nov 22, 2:53 PM)29.45 "Hg (Nov 17, 11:53 AM)
Average43 °F82%30.03 "Hg
* Reported Nov 9 8:53 PM — Nov 24 8:53 PM, Port Angeles, Weather by CustomWeather, © 2015

Note: Actual official high and low records may vary slightly from our data, if they occured in-between our weather recording intervals... More about our weather records


Port Angeles weather history for previous 24 hours

Time TempWeatherWind HumidityBarometerVisibility
8:53 PM
Tue, Nov 24
29 °FIce fog.5 mph93%30.18 "Hg6 mi
7:53 PM30 °FIce fog.3 mph92%30.17 "Hg5 mi
6:53 PM35 °FClear.3 mph82%30.15 "Hg8 mi
5:53 PM34 °FPassing clouds.No wind92%30.13 "Hg7 mi
4:53 PM36 °FPassing clouds.3 mph89%30.10 "Hg9 mi
3:53 PM41 °FScattered clouds.3 mph67%30.07 "Hg10 mi
2:53 PM45 °FPassing clouds.6 mph58%30.05 "Hg10 mi
1:53 PM46 °FSunny.3 mph61%30.03 "Hg10 mi
12:53 PM44 °FScattered clouds.No wind76%30.01 "Hg10 mi
11:53 AM42 °FBroken clouds.3 mph85%29.99 "Hg10 mi
10:53 AM43 °FPartly sunny.No wind82%29.98 "Hg9 mi
9:53 AM42 °FMore clouds than sun.5 mph82%29.95 "Hg10 mi
8:53 AM40 °FLight rain. Fog.8 mph86%29.92 "Hg6 mi
7:53 AM40 °FLight rain. Fog.6 mph86%29.88 "Hg4 mi
6:53 AM40 °FLight rain. Fog.5 mph89%29.85 "Hg6 mi
5:53 AM41 °FLight rain. Fog.3 mph86%29.81 "Hg4 mi
4:53 AM42 °FLight rain. Fog.5 mph85%29.78 "Hg5 mi
3:53 AM41 °FLight rain. Fog.8 mph89%29.75 "Hg4 mi
2:53 AM41 °FLight rain. Fog.7 mph93%29.75 "Hg3 mi
1:53 AM41 °FLight rain. Fog.7 mph93%29.73 "Hg2 mi
12:53 AM41 °FLight rain. Low clouds.8 mph93%29.72 "Hg7 mi
11:53 PM
Mon, Nov 23
41 °FLight rain. Fog.8 mph93%29.73 "Hg6 mi
10:53 PM42 °FLight rain. Fog.7 mph89%29.73 "Hg5 mi
Weather by CustomWeather, © 2015

See weather overviewHow to use our weather pages